Regional Weather Roundup
Issued by NWS New Orleans/Baton Rouge, LA

Home | Current Version | Previous Version | Text Only | Print | Product List | Glossary On
Versions: 1 2 3 4 5 6 7 8 9 10 11 12 13 14 15 16 17 18 19 20 21 22 23 24 25 26 27 28 29 30 31 32 33 34 35 36 37 38 39 40 41 42 43 44 45 46 47 48 49 50
787
ASUS44 KLIX 262313
RWRLIX
NEW ORLEANS REGIONAL WEATHER ROUNDUP
NATIONAL WEATHER SERVICE NEW ORLEANS LA
600 PM CDT SUN MAR 26 2017

NOTE: "FAIR" INDICATES FEW OR NO CLOUDS BELOW 12,000 FEET WITH NO
      SIGNIFICANT WEATHER AND/OR OBSTRUCTIONS TO VISIBILITY.
      SKY/WX - SKY CONDITION AND SIGNIFICANT WEATHER.
      TMP - AIR TEMPERATURE.     DP    - DEWPOINT TEMPERATURE.
      RH  - RELATIVE HUMIDITY.   PRES  - PRESSURE.
      HI  - HEAT INDEX.          WCI   - WIND CHILL INDEX.

*  THESE STATIONS ARE NOT NWS OR FAA STATIONS AND ARE NOT UNDER
   NWS QUALITY CONTROL.

LAZ038-040-048-061>063-065>067-069-270000-
SOUTHEAST LOUISIANA

CITY           SKY/WX    TMP DP  RH WIND       PRES   REMARKS
N.O. INTL ARPT MOSUNNY   78  66  66 SE15G23   29.98S
N.O. LAKEFRONT SUNNY     79  63  57 S16       29.98F
N.O. DOWNTOWN*   N/A     79  66  64 S10       29.99S
RESERVE*         N/A     80  63  57 S14       29.97S
SLIDELL        SUNNY     79  63  57 S12       29.98S
BATON ROUGE    MOSUNNY   81  63  54 S14       29.94S
BOOTHVILLE     NOT AVBL
BELLE CHASSE   MOSUNNY   81  67  62 S14       29.99S
BOGALUSA*      NOT AVBL
GALLIANO*      PTCLDY    77  65  65 SE8       29.99S
NEW ROADS*       N/A     80  63  56 S12       29.94S
GONZALES*        N/A     78  65  64 S7        29.95S
HAMMOND*       PTSUNNY   79  63  57 S12       29.96S
HOUMA*         MOSUNNY   75  66  73 SE8       29.99S
PORT FOURCHON* MOCLDY    75  68  78 SE14      29.99S

$$

MSZ070-080>082-270000-
SOUTHERN MISSISSIPPI

CITY           SKY/WX    TMP DP  RH WIND       PRES   REMARKS
MCCOMB         MOSUNNY   79  59  50 S9        29.95F
GULFPORT       MOSUNNY   75  70  84 SE14      30.01S
BILOXI         MOSUNNY   74  70  85 S9        30.01F
PASCAGOULA     PTSUNNY   76  66  71 SE10      30.02F
STENNIS ARPT*  MOSUNNY   75  64  69 S13G18    30.00S

$$

COASTAL OBSERVATIONS
LAKE AND NEARSHORE STATIONS

STATION/POSITION TIME  TEMP    WIND        PRES    WAVE
                       AIR SEA DIR/SP/G            HT/PER
                 (UTC) (F)     (DEG/KT/KT) (MB)    (FT/S)
PASCAGOULA       2242   74     140/  8/ 15 1016.5
WAVELAND YACHT   2242   73 73  150/ 12/ 15 1015.7
GRAND ISLE       2242   75 74  140/  8/ 10 1015.7
SOUTHWEST PASS   2236          140/  4/  6   N/A
NEW CANAL        2242   80 73  190/  8/ 13   N/A
SHELL BEACH      2242   76 74  140/ 11/ 15 1015.9

OFFSHORE STATIONS

STATION/POSITION TIME  TEMP    WIND        PRES    WAVE
                       AIR SEA DIR/SP/G            HT/PER
                 (UTC) (F)     (DEG/KT/KT) (MB)    (FT/S)
64 S DAUPHIN ISL 2250   73 74  150/  8/ 10 1017.0    3/ 8

$$





USA.gov is the U.S. government's official web portal to all federal, state and local government web resources and services.